OBJECT AP, 57203

Orbit data source: Space-Track

You're viewing an uncataloged RSO

Recently launched and/or uncataloged RSOs may have evolving metadata. Metadata may include the following, but is not limited to: Owner, Manufacturer, Bus, Motor, and Mission.

OBJECT AP, 57203 is a satellite in SSO that was launched on Tue, 27 Jun 2023 UTC via a SOYUZ-2-1B launch vehicle from the Vostochny Cosmodrome (VOSTO). Unknown objects in Earth's orbit typically refer to objects detected orbiting the Earth but have not yet been identified or cataloged. These objects could be anything from previously untracked satellites, spent rocket stages, debris from satellite collisions, or even natural meteoroids temporarily captured by Earth's gravity.

Loading next visibility...
Identifier
57203, 2023-091AP
Orbit
SSO
Country
Flag of TBDTBD
Related business
Flag of RUUniversity of Tyumen (RU)
Manufacturer
Sputniks
Mission
Operational Amateur Imaging
Bus & Motor
CUBESAT 3U, Unknown motor
Mass
4 kg wet, 4 kg dry
Launch date (UTC)
2023-06-27 (3 years ago)
Launch vehicle
SOYUZ-2-1B
Launch site
Vostochny Cosmodrome (VOSTO)
Object type
Unknown
Shape & HBR
Box, 0.2 m
Radar Cross Section
0.035 m², Medium (>0.1 m² and < 1m²)

Expand to show TLE details & history
Last TLE update: 7 hours ago

TLE from 7 hours ago
0 OBJECT AP
1 57203U 23091AP  26220.16102922  .00006170  00000-0  19468-3 0  9992
2 57203  97.5054 288.1357 0006292 245.9740 114.0843 15.33221064172506
Epoch: 2026-08-08T03:51Z
TLE epoch observation values (Epoch: 2026-08-08T03:51:52.924Z)
Latitude
-0.00011°
Longitude
-86.51115°
Altitude
471.075 km
Speed
7.63 km/s
True Right ascension
19h 12m 32s
True Declination
0° 00' 00"
Sunlit
Object was in full shadow at epoch
Visualization orbit readout
Latitude
Unknown
Longitude
Unknown
Altitude
Unknown
Speed
Unknown
Apparent Right ascension
Unknown
Apparent Declination
Unknown
Sunlit
N/A
Visualization observer readout
Local Sidereal Time
00:43:50
Azimuth
Unknown
Elevation
Unknown
Doppler factor
Unknown
Orbital elements
Apogee altitude
467.467 km
Perigee altitude
458.858 km
Semi-major axis
6,841.299 km
Eccentricity
0.00063
Inclination
97.5054°
RAAN
288.1357°
Arg. of periapsis
245.974°
True anomaly
114.1501°
Mean anomaly
114.0843°
Eccentric anomaly
114.1172°
Mean motion
3.83562 °/min
Orbital period
93.86 mins
BSTAR
0.00019468
Loading maneuver chart data...
Computing Atmospheric mass density...
Loading historical data...
Loading historical data...
Loading historical data...
Loading historical data...
Loading historical data...
Loading historical data...
Loading historical data...

Documentation

Showing up to 5 results
|